(369) Aeria
ephemeris date magn radius delta ra dec elong phase
Today19 Apr 202413.72.453 AU3.404 AU02h52m+09°42'15.8°6.4°
Opposition13 Jan 202512.32.712 AU1.733 AU07h45m+27°57'173.4°2.4°
(369) Aeria - 2024-04-19
astro.vanbuitenen.nl


 
-1 year
-1 month
-1 day
Now
+1 day
+1 month
+1 year

The interactive orbit chart above shows the body's path through the solar system and its position at the given date. Green and blue lines are shown perpendicular to the ecliptic plane: Green if the path is above the ecliptic plane, blue if it is below. (Left-click and drag to rotate the view; Right-click and drag to move the view; Use scroll wheel to zoom in our out.)

The orbital elements of Aeria are:

            e (Eccentricity)                : 0.0974323
            a (Semimajor axis)              : 2.6486443
            i (Inclination)                 : 12.71746
            Ω (Longitude of ascending node) : 94.13906
            ω (Argument of perihelion)      : 269.98422
            M (Mean anomaly)                : 347.13513
            Epoch                           : 2023 Sep 13

            L (Longitude of perihelion)     : 184.12288
            B (Latitude of perihelion)      : -12.71746
            P (Orbital period in years)     : 4.31            
        

The light curve chart below shows the estimated development of the minor planet's magnitude.


The all-sky chart below shows the path of the minor planet over the same period as the light curve. The current position is marked yellow.





The following chart shows the path of the minor planet in the next few days. The field of view is optimized for (~10x50) binoculars and finderscopes. A more printer-friendly version of the same chart can be found below.




Ephemerides:
Date       Time       RA (2000)    DEC (2000)    delta   radius  elong  phase   PA    magn
2024-04-19 00:00 UT   02 52 15.4   +09 42 54     3.404    2.453   15.8    6.4    97   13.7 
2024-04-19 14:08 UT   02 53 18.0   +09 48 56     3.407    2.454   15.5    6.3    97   13.7 
2024-04-20 00:00 UT   02 54 01.8   +09 53 07     3.409    2.454   15.3    6.2    97   13.7 
2024-04-21 00:00 UT   02 55 48.3   +10 03 16     3.413    2.455   14.9    6.0    98   13.7 
2024-04-22 00:00 UT   02 57 34.9   +10 13 21     3.416    2.456   14.4    5.8    99   13.7 
2024-04-23 00:00 UT   02 59 21.7   +10 23 22     3.420    2.456   13.9    5.7   100   13.7 
2024-04-24 00:00 UT   03 01 08.6   +10 33 18     3.424    2.457   13.5    5.5   101   13.7 
2024-04-25 00:00 UT   03 02 55.7   +10 43 10     3.428    2.458   13.0    5.3   102   13.7 
2024-04-26 00:00 UT   03 04 42.9   +10 52 58     3.431    2.459   12.6    5.1   103   13.7 
2024-04-27 00:00 UT   03 06 30.2   +11 02 42     3.434    2.459   12.1    4.9   104   13.7 
2024-04-28 00:00 UT   03 08 17.7   +11 12 21     3.438    2.460   11.7    4.7   106   13.7 
2024-04-29 00:00 UT   03 10 05.3   +11 21 56     3.441    2.461   11.2    4.6   107   13.7 
2024-04-30 00:00 UT   03 11 53.1   +11 31 26     3.444    2.462   10.8    4.4   109   13.7 
2024-05-01 00:00 UT   03 13 41.0   +11 40 53     3.447    2.462   10.4    4.2   110   13.7 
2024-05-02 00:00 UT   03 15 29.0   +11 50 14     3.450    2.463    9.9    4.0   112   13.7 
2024-05-03 00:00 UT   03 17 17.1   +11 59 32     3.453    2.464    9.5    3.9   114   13.7 
2024-05-04 00:00 UT   03 19 05.4   +12 08 44     3.455    2.465    9.1    3.7   116   13.7 
2024-05-05 00:00 UT   03 20 53.8   +12 17 52     3.458    2.466    8.7    3.6   118   13.6 
2024-05-06 00:00 UT   03 22 42.4   +12 26 56     3.460    2.466    8.3    3.4   120   13.6 
2024-05-07 00:00 UT   03 24 31.0   +12 35 55     3.462    2.467    8.0    3.2   123   13.6 


    Terminology:
            
    delta:  distance between minor planet and earth in AU
    radius: distance between minor planet and sun in AU
    magn:   magnitude (brightness) estimate    
    ra:     right ascension in hours (24h = 360deg)
    dec:    declination in degrees
    elong:  elongation in degrees (angle sun-earth-minor planet)    
    phase:  phase angle in degrees (angle sun-minor planet-earth)        
    AU:     Astronomical Unit (mean distance between earth and sun: 149597870.7 km
    

Orbital elements provided by the MPC (Minor Planet Center).
Calculations by a modified version of AAPlus, a C# implementation of the AA+ project by PJ Naughter from the algorithms presented in the book "Astronomical Algorithms" by Jean Meeus.
NGC2000 dso catalog and star labels from VizieR as provided by the Strasbourg astronomical Data Center.
Tycho2 catalog from the ESO archive.